Regional Weather Roundup
Issued by NWS

Home | Current Version | Previous Version | Graphics & Text | Print | Product List | Glossary On
Versions: 1 2 3 4 5 6 7 8 9 10 11 12 13 14 15 16 17 18 19 20 21 22 23 24 25 26 27 28 29 30 31 32 33 34 35 36 37 38 39 40 41 42 43 44 45 46 47 48 49 50
000
ASUS43 KDMX 312004
RWRIA

WEATHER ROUNDUP FOR IOWA
NATIONAL WEATHER SERVICE DES MOINES IA
  ISSUED BY NWS QUAD CITIES IA IL
200 PM CST SAT JAN 31 2015

NOTE: "FAIR" INDICATES FEW OR NO CLOUDS BELOW 12,000 FEET WITH NO
SIGNIFICANT WEATHER AND/OR OBSTRUCTIONS TO VISIBILITY.

* - THESE STATIONS ARE NOT NWS STATIONS...THUS NOT UNDER NWS
QUALITY CONTROL.  THEY ALSO DO NOT REPORT WEATHER SUCH
AS PRECIPITATION OR FOG.

IAZ001>003-012>014-020>022-031>034-043>046-312100-
   NORTHWEST IOWA

CITY           SKY/WX    TMP DP  RH WIND       PRES   REMARKS
CARROLL *      MIX PCPN  36  34  93 SW14      30.07F WCI  27
CHEROKEE *     LGT SNOW  31  31 100 NE8       30.07F WCI  23
DENNISON *     LGT SNOW  34  34 100 S6        30.05F WCI  29
LE MARS *      LGT SNOW  32  30  93 NE9       30.06F WCI  24
ORANGE CITY *  CLOUDY    30  28  93 E10       30.06F FOG     WCI  21
SHELDON *      FOG       28  28 100 NE17      30.06F VSB 3/4 WCI  16
SIOUX CITY     LGT RAIN  37  35  92 SE5       30.04F FOG     WCI  33
SPENCER        CLOUDY    29  26  89 NE12      30.09F FOG     WCI  19
STORM LAKE *   LGT SNOW  30  30 100 NE9       30.07F VSB 3/4 WCI  22
$$

IAZ055>058-069>071-079>083-090>094-312100-
   SOUTHWEST IOWA

CITY           SKY/WX    TMP DP  RH WIND       PRES   REMARKS
ATLANTIC *     CLOUDY    36  36 100 S10       30.07F WCI  28
AUDUBON *      LGT SNOW  34  30  86 CALM      30.08F
CLARINDA *     MIX PCPN  36  36 100 S9        30.12F WCI  29
COUNCIL BLFS * LGT SNOW  34  34 100 S7        30.04F VSB 1   WCI  28
CRESTON *      CLOUDY    36  36 100 S10       30.10F WCI  28
HARLAN *       LGT SNOW  32  32 100 CALM      30.10F VSB 1
LAMONI         LGT RAIN  36  35  96 S9        30.12F WCI  29
RED OAK *      CLOUDY    36  36 100 S13       30.08F WCI  27
SHENANDOAH *   LGT SNOW  34  34 100 SE13      30.08F WCI  25
$$

IAZ047>049-059>061-072>074-084-312100-
   CENTRAL IOWA

CITY           SKY/WX    TMP DP  RH WIND       PRES   REMARKS
AMES           CLOUDY    37  34  89 SW14      30.11F WCI  28
ANKENY *       MIX PCPN  37  36  93 SW9       30.12F WCI  31
BOONE *        MIX PCPN  37  37 100 SW8       30.08F WCI  31
CHARITON *     MIX PCPN  37  37 100 SW10      30.13F WCI  30
DES MOINES     LGT RAIN  38  35  89 SW8       30.12F WCI  32
GRINNELL *     DRIZZLE   37  35  94 SW10      30.13F WCI  29
KNOXVILLE *    LGT RAIN  37  36  93 SW7       30.12F WCI  32
MARSHALLTOWN   CLOUDY    37  36  96 S6        30.11F FOG     WCI  32
NEWTON *       MIX PCPN  37  36  93 SW10      30.13F WCI  30
PELLA *        LGT RAIN  38  36  93 SW7       30.15F WCI  33
PERRY *        LGT SNOW  36  35  96 SW8       30.10F WCI  29
$$

IAZ004>006-015-016-023>025-035-036-312100-
   NORTH CENTRAL IOWA

CITY           SKY/WX    TMP DP  RH WIND       PRES   REMARKS
ALGONA *       CLOUDY    30  30 100 NE7       30.11F FOG     WCI  23
CLARION *      CLOUDY    34  34 100 CALM      30.10F FOG
ESTHERVILLE    FOG       26  25  96 NE13      30.10S VSB 1/2 WCI  15
FORT DODGE *   CLOUDY    34  32  93 E5        30.09F WCI  30
MASON CITY     CLOUDY    31  26  82 NE7       30.12F WCI  24
WEBSTER CITY * MIX PCPN  36  36 100 SW6       30.08F WCI  31
IOWA FALLS *   RAIN      35  34  95 CALM      30.11F
$$

IAZ007>011-017>019-026>030-037>042-050>054-066-312100-
   NORTHEAST IOWA

CITY           SKY/WX    TMP DP  RH WIND       PRES   REMARKS
CEDAR RAPIDS   CLOUDY    36  36 100 SW7       30.13F FOG     WCI  30
CHARLES CITY * CLOUDY    32  28  86 E7        30.12F WCI  26
CLINTON *      CLOUDY    36  30  80 SW10      30.19F WCI  28
DECORAH *      CLOUDY    32  27  80 CALM      30.12S
DUBUQUE        CLOUDY    35  28  75 W7        30.13F WCI  29
MONTICELLO *   CLOUDY    36  36 100 W6G12     30.14F FOG     WCI  31
OELWEIN *      CLOUDY    36  30  80 CALM      30.12F
WATERLOO       CLOUDY    35  34  96 SW3       30.12F FOG
$$

IAZ064-065-067-068-078-312100-
   EAST CENTRAL IOWA

CITY           SKY/WX    TMP DP  RH WIND       PRES   REMARKS
DAVENPORT      CLOUDY    34  31  88 SW8       30.17F FOG     WCI  27
IOWA CITY      CLOUDY    36  35  96 SW5       30.17F FOG     WCI  32
MT. PLEASANT * LGT RAIN  34  34  99 S7        30.18F WCI  28
MUSCATINE *    CLOUDY    36  34  93 CALM      30.18F FOG
QUAD CITIES    CLOUDY    36  33  89 W7        30.17F FOG     WCI  30
$$

IAZ062-063-075>077-085>089-095>099-312100-
   SOUTHEAST IOWA

CITY           SKY/WX    TMP DP  RH WIND       PRES   REMARKS
BURLINGTON     MIX PCPN  35  31  85 SW7       30.18F FOG     WCI  29
FAIRFIELD *    MIX PCPN  37  36  93 S7        30.16F WCI  32
FORT MADISON * RAIN      36  34  93 SW5       30.19F WCI  32
KEOKUK *       CLOUDY    36  34  93 S6G13     30.19F FOG     WCI  31
OTTUMWA        LGT RAIN  38  38 100 SW6       30.15F FOG     WCI  33
WASHINGTON *   MIX PCPN  37  37 100 SW7       30.16F WCI  32
$$

ABBREVIATIONS USED IN REMARKS
   TC - TEMPERATURES IN CELSIUS
  WCI - WIND CHILL INDEX
   HX - HEAT INDEX
  VSB - VISIBILITY
$$


USA.gov is the U.S. government's official web portal to all federal, state and local government web resources and services.